User: anonymous   Login
Location: Maignaut
(43.8886°N, 0.4051°E)
Time: 06:17:25
(UTC+00:00)
Language:

STARLINK-1039 - Orbit

View from above orbital plane
View from above orbital plane
View from above satellite
View from above satellite

Ground track
Ground track

The orbit data is extracted from the following two-line orbital elements,

1 44744C 19074AH  20152.78242701  .00003262  00000-0  22335-3 0  1527
2 44744  52.9983 329.3818 0001382 107.8072  10.5183 15.05585724    15
Epoch (UTC): 31 May 2020 18:46:41
Eccentricity: 0.0001382
inclination: 52.9983°
perigee height: 549 km
apogee height: 550 km
right ascension of ascending node: 329.3818°
argument of perigee: 107.8072°
revolutions per day: 15.05585724
mean anomaly at epoch: 10.5183°
orbit number at epoch: 1

The dashed part of the orbit path shows where the satellite is in the earth's shadow,  

DLR